C/2012 L2 ( LINEAR )

Japanese version
Home page
Updated on February 23, 2014

---------------------------------------------------------------------

* Profile

Discovery Date June 1, 2012
Magnitude 19.4 mag
Discoverer Lincoln Laboratory Near-Earth Asteroid Research project

* Pictures

* Orbital Elements

Epoch 2013 May 28.0 TT = JDT 2456440.5
T 2013 May  9.32247 TT                                  MPC
q   1.5086432            (2000.0)            P               Q
z  +0.0017605      Peri.  205.77627     -0.14643645     -0.29114471
 +/-0.0000007      Node   270.30133     +0.98903176     -0.06173803
e   0.9973440      Incl.   70.98237     -0.01930132     -0.95468486
From 1911 observations 2012 June 1-2013 Aug. 28, mean residual 0".5.

* Finding Charts

* Magnitudes Graph

        m1 = 7.0 + 5 log d + 12.5 log r  [   ,-58]  (             - 2013 Mar. 12)
        m1 = 3.5 + 5 log d + 27.5 log r  [-58,   ]  (2013 Mar. 12 -             )

---------------------------------------------------------------------

The orbital elements are published on M.P.E.C. 2013-R59.
The charts are made with StellaNavigator Ver.8 (AstroArts).
The magnitudes graphs are made with Comet for Windows.

---------------------------------------------------------------------

Copyright(C) Seiichi Yoshida (comet@aerith.net). All rights reserved.